Simultaneous Nadir Overpasses (SNOs) Predictions

Prediction of SNOs between AQUA and METOP-B Satellite Orbit:

Table of predicted SNOs for the next 14.0 days since TLE Epoch: 10/26/2019
Index Date (AQUA) Time (AQUA) Lat,Lon (AQUA) SZA (AQUA ) Date (METOP-B) Time (METOP-B) Lat,Lon (METOP-B) SZA (METOP-B ) Distance(km) Time Diff (sec)
1 10/27/2019 08:24:15 -73.68,-131.55 93.69 10/27/2019 08:23:02 -73.65,-132.00 93.71 14.55 73
2 10/27/2019 09:13:45 73.84, 35.73 86.50 10/27/2019 09:13:38 73.82, 35.75 86.48 2.46 7
3 10/27/2019 10:03:12 -73.88,-156.72 93.45 10/27/2019 10:04:19 -73.88,-156.80 93.46 2.52 67
4 10/30/2019 03:58:31 -73.76, -65.28 92.67 10/30/2019 03:57:24 -73.75, -65.35 92.67 2.11 67
5 10/30/2019 04:47:59 73.82, 102.21 87.42 10/30/2019 04:48:02 73.83, 102.17 87.42 1.50 3
6 10/30/2019 05:37:28 -73.96, -90.46 92.43 10/30/2019 05:38:41 -73.98, -90.14 92.42 10.03 73
7 11/01/2019 23:32:45 -73.79, 1.08 91.72 11/01/2019 23:31:46 -73.80, 1.19 91.70 3.54 59
8 11/02/2019 00:22:13 73.86, 168.57 88.37 11/02/2019 00:22:25 73.83, 168.58 88.34 3.42 12
9 11/02/2019 01:11:49 -74.36, -24.93 91.12 11/02/2019 01:12:57 -74.33, -22.86 91.17 62.24 68
10 11/04/2019 19:06:59 -73.78, 67.54 90.85 11/04/2019 19:06:10 -73.81, 67.60 90.82 3.05 49
11 11/04/2019 19:56:27 73.85,-124.97 89.24 11/04/2019 19:56:49 73.83,-125.00 89.22 2.70 22
12 11/07/2019 14:41:13 -73.78, 133.99 90.00 11/07/2019 14:40:34 -73.80, 134.00 89.98 2.57 39
13 11/07/2019 15:30:41 73.85, -58.53 90.09 11/07/2019 15:31:12 73.88, -58.48 90.11 3.32 31




NCC Satellite Simultaneous Nadir Overpasses (SNOs) Prediction Service
